Estación municipal de Susqueda - St. Martí Sacalm (La Selva, )

Consulta los datos en tiempo real de la estación municipal de Susqueda - St. Martí Sacalm





Hora UTC 19:40
Temperatura 23.0 ºC
Humedad 69.6 %
Presión 1024.8 hPa
Pluja 0.0 mm
Velocidad viento 0.0 km/h
Dirección viento NNE
Radiación solar 0.1 W/m²

Datos diarios 2026-09-03



Hora UTC (invierno +1h; verano +2h)
Temperatura (ºC) Humedad (%) Presión (hPa) Velocidad viento (km/h) Precipitación (mm) Radiación solar (W/m²)
Hora UTC Aire Humedad Presión Vel. Dir. Vel. Max Dir. Intent. máx 5 min. Rad. Sol.
00:05 21.9 63.9 1024.9 4.5 SW 4.5 SW 0.0 0.1
00:10 21.6 66.2 1024.9 5.6 SW 8.1 SW 0.0 0.1
00:15 21.3 67.5 1024.9 5.4 SW 6.7 SSW 0.0 0.1
00:20 21.1 67.9 1024.9 4.4 SW 5.7 SSW 0.0 0.2
00:25 21.0 67.9 1024.9 2.9 SW 6.0 SW 0.0 0.1
00:30 20.9 68.3 1024.9 2.2 SW 6.4 SW 0.0 0.1
00:35 21.0 67.4 1024.9 5.4 SW 7.1 SW 0.0 0.1
00:40 20.8 68.6 1025.0 6.0 SSW 8.1 SSW 0.0 0.1
00:45 20.6 69.2 1025.0 8.1 SSW 10.6 SSW 0.0 0.1
00:50 20.4 69.9 1024.9 7.9 SSW 9.5 SSW 0.0 0.1
00:55 20.3 70.2 1024.9 2.9 SSW 8.5 SSW 0.0 0.1
01:00 20.0 70.9 1024.9 7.3 SSW 9.2 S 0.0 0.1
01:05 19.9 71.2 1024.9 8.3 SSW 11.0 SSW 0.0 0.1
01:10 19.9 71.2 1024.9 8.3 SSW 11.0 SW 0.0 0.1
01:15 20.0 71.1 1024.9 8.1 SSW 9.9 SSW 0.0 0.1
01:20 20.0 71.0 1024.8 9.6 SW 11.3 SW 0.0 0.2
01:25 20.1 71.1 1024.8 9.3 SW 10.6 SW 0.0 0.1
01:30 20.1 71.0 1024.8 8.4 SSW 9.5 SW 0.0 0.1
01:35 20.1 71.2 1024.8 7.8 SSW 9.5 SSW 0.0 0.1
01:40 20.1 70.8 1024.9 6.6 SSW 8.8 SSW 0.0 0.1
01:45 20.1 70.8 1024.9 5.3 SSW 7.1 SSW 0.0 0.1
01:50 20.1 71.1 1024.8 6.6 SSW 9.5 SSW 0.0 0.1
01:55 20.0 71.3 1024.8 6.9 SSW 8.8 SSW 0.0 0.1
02:00 19.8 71.7 1024.8 6.6 SSW 8.1 SSW 0.0 0.1
02:05 19.7 72.1 1024.8 6.5 SSW 8.8 SSW 0.0 0.1
02:10 19.7 71.8 1024.7 7.3 SSW 9.9 SSW 0.0 0.1
02:15 19.7 71.7 1024.7 7.5 SSW 10.6 SSW 0.0 0.1
02:20 19.7 72.0 1024.7 9.5 SSW 13.4 SW 0.0 0.1
02:25 19.9 72.0 1024.6 11.0 SSW 14.5 SSW 0.0 0.1
02:30 19.7 72.6 1024.6 10.8 SSW 15.5 SSW 0.0 0.1
02:35 19.7 73.2 1024.6 13.3 SW 16.6 SW 0.0 0.1
02:40 19.7 73.2 1024.6 11.9 SW 15.2 SW 0.0 0.1
02:45 19.4 74.1 1024.6 11.5 SW 14.5 SW 0.0 0.1
02:50 19.2 74.7 1024.6 10.2 SSW 13.1 SW 0.0 0.1
02:55 19.0 75.1 1024.6 10.3 SW 12.0 SW 0.0 0.2
03:00 19.0 74.9 1024.5 11.3 SW 15.5 SSW 0.0 0.1
03:05 19.2 74.2 1024.6 11.3 SW 14.1 SW 0.0 0.1
03:10 19.2 74.1 1024.5 11.3 SW 13.4 SW 0.0 0.1
03:15 19.2 74.5 1024.5 11.3 SW 13.8 SSW 0.0 0.1
03:20 19.2 74.7 1024.5 10.7 SW 12.7 SW 0.0 0.1
03:25 19.2 74.9 1024.4 12.0 SW 14.8 SW 0.0 0.1
03:30 19.3 75.1 1024.4 12.6 SW 15.5 SW 0.0 0.1
03:35 19.2 75.1 1024.4 11.7 SW 14.1 SSW 0.0 0.1
03:40 19.3 75.2 1024.3 10.9 SW 13.1 SSW 0.0 0.1
03:45 19.2 75.6 1024.4 8.4 SW 11.3 SW 0.0 0.1
03:50 19.4 75.5 1024.5 6.2 SW 8.8 WSW 0.0 0.1
03:55 19.6 74.8 1024.4 8.0 SSW 9.5 SSW 0.0 0.1
04:00 19.7 74.3 1024.3 9.2 SSW 12.0 SW 0.0 0.1
04:05 19.6 74.5 1024.3 8.7 SSW 12.7 SSW 0.0 0.1
04:10 19.4 75.3 1024.3 7.6 SW 9.5 SW 0.0 0.1
04:15 19.3 75.8 1024.3 8.0 SW 9.9 SW 0.0 0.1
04:20 19.4 75.7 1024.3 7.5 SSW 9.5 SSW 0.0 0.1
04:25 19.4 75.6 1024.3 6.7 SSW 8.8 SW 0.0 0.2
04:30 19.3 75.8 1024.2 6.6 SW 8.1 SW 0.0 0.1
04:35 19.3 75.9 1024.2 6.5 SW 7.8 SW 0.0 0.1
04:40 19.2 76.1 1024.2 6.1 SW 7.4 SSW 0.0 0.1
04:45 19.3 75.8 1024.3 6.0 SSW 7.4 SSW 0.0 0.1
04:50 19.3 76.0 1024.4 5.5 SW 7.1 SSW 0.0 0.2
04:55 19.2 76.3 1024.4 5.4 SW 7.4 SSW 0.0 0.2
05:00 19.3 76.0 1024.4 5.4 SW 6.7 SW 0.0 0.6
05:05 19.5 75.5 1024.4 5.3 SW 6.4 SSW 0.0 1.2
05:10 19.7 74.8 1024.4 5.1 SSW 6.4 SSW 0.0 2.2
05:15 19.7 74.7 1024.5 5.8 SSW 6.7 SW 0.0 4.1
05:20 19.8 74.4 1024.5 5.5 SSW 7.4 SSW 0.0 6.3
05:25 19.9 73.4 1024.5 6.9 SSW 8.5 SSW 0.0 11.3
05:30 20.0 72.8 1024.6 5.8 SSW 8.1 SSW 0.0 20.4
05:35 20.1 72.7 1024.6 5.0 SSW 6.4 SSW 0.0 31.2
05:40 20.1 72.7 1024.6 6.0 SSW 7.8 SSW 0.0 43.2
05:45 19.9 73.1 1024.6 7.3 SSW 8.8 SW 0.0 55.5
05:50 19.8 73.6 1024.7 7.0 SW 9.2 SSW 0.0 68.2
05:55 19.6 74.3 1024.8 6.2 SSW 7.1 SSW 0.0 80.2
06:00 19.6 74.7 1024.8 6.4 SSW 7.8 SSW 0.0 93.5
06:05 19.7 74.2 1024.8 5.4 SSW 8.5 SSW 0.0 108.9
06:10 19.8 73.5 1024.8 6.3 SSW 8.5 S 0.0 123.2
06:15 20.0 72.9 1024.9 7.0 SSW 9.9 SSW 0.0 136.8
06:20 20.0 72.5 1024.9 7.3 SSW 8.8 SW 0.0 151.5
06:25 20.0 72.4 1024.9 6.4 SSW 8.8 S 0.0 166.1
06:30 20.1 72.4 1025.0 6.2 SSW 8.8 SSW 0.0 181.1
06:35 20.0 72.6 1025.0 6.4 SW 7.8 SW 0.0 197.0
06:40 20.1 72.3 1025.0 6.4 SW 7.8 SW 0.0 213.3
06:45 20.3 71.6 1025.0 4.5 SSW 7.1 SW 0.0 229.8
06:50 20.5 71.0 1025.0 3.2 SSW 5.7 SSW 0.0 246.0
06:55 20.8 69.7 1025.1 4.1 SW 8.5 W 0.0 262.4
07:00 21.0 69.3 1025.1 5.7 SW 8.1 SW 0.0 278.0
07:05 21.0 69.0 1025.1 5.6 SSW 8.1 SSW 0.0 294.2
07:10 21.1 68.7 1025.1 6.5 SW 9.2 SW 0.0 310.2
07:15 21.3 68.0 1025.2 5.4 SW 6.7 SW 0.0 326.1
07:20 21.5 66.4 1025.2 5.5 SSW 8.1 SSW 0.0 342.5
07:25 21.8 65.4 1025.2 5.4 SSW 8.8 SW 0.0 358.7
07:30 22.1 64.0 1025.2 6.2 SW 7.8 SW 0.0 374.9
07:35 22.5 62.7 1025.1 7.3 SSW 9.5 SSW 0.0 391.1
07:40 22.9 61.9 1025.1 7.0 SW 10.3 SW 0.0 406.5
07:45 22.8 62.0 1025.2 7.7 SW 9.9 SW 0.0 422.7
07:50 22.6 62.6 1025.1 8.6 SW 11.0 SW 0.0 438.3
07:55 22.7 61.9 1025.1 8.4 SSW 10.6 SW 0.0 454.2
08:00 23.0 61.0 1025.1 8.4 SW 11.7 SSW 0.0 469.3
08:05 23.2 59.9 1025.2 8.3 SW 11.7 SW 0.0 483.7
08:10 23.4 58.1 1025.2 8.5 SSW 11.7 SW 0.0 498.5
08:15 23.6 57.8 1025.2 10.4 SW 14.5 SW 0.0 512.1
08:20 23.6 57.8 1025.3 11.0 SW 14.8 SW 0.0 526.7
08:25 23.7 57.3 1025.3 12.4 SW 16.6 SSW 0.0 540.4
08:30 24.0 56.0 1025.3 14.4 SW 19.4 SW 0.0 554.3
08:35 24.2 54.9 1025.3 15.2 SSW 22.6 SW 0.0 568.4
08:40 24.4 53.3 1025.3 15.7 SW 23.7 SW 0.0 580.7
08:45 24.6 52.5 1025.3 18.8 SW 26.1 SSW 0.0 592.4
08:50 24.6 51.9 1025.4 18.2 SW 25.8 SW 0.0 605.1
08:55 24.5 52.2 1025.3 20.7 SW 27.9 SW 0.0 617.0
09:00 24.5 52.4 1025.4 20.0 SW 26.1 SW 0.0 627.7
09:05 24.6 52.5 1025.4 16.3 SSW 21.5 SW 0.0 640.6
09:10 25.0 51.6 1025.4 16.2 SSW 23.0 SSW 0.0 652.0
09:15 25.1 51.5 1025.4 17.8 SW 26.8 SW 0.0 662.0
09:20 25.0 51.2 1025.4 19.0 SSW 27.5 SW 0.0 672.5
09:25 25.2 50.9 1025.4 16.8 SW 23.3 SSW 0.0 681.5
09:30 25.7 49.5 1025.4 17.2 SSW 26.1 SW 0.0 679.8
09:35 25.6 49.6 1025.4 19.3 SW 31.1 SW 0.0 613.0
09:40 25.7 49.7 1025.4 16.5 SW 29.3 SW 0.0 713.1
09:45 26.1 48.7 1025.5 16.5 SW 26.5 SW 0.0 721.5
09:50 26.2 48.0 1025.5 14.8 SSW 27.9 SW 0.0 730.5
09:55 26.3 48.1 1025.5 15.4 SSW 29.3 SW 0.0 738.9
10:00 26.5 47.8 1025.5 18.8 SW 25.4 SSW 0.0 747.3
10:05 26.6 47.0 1025.4 20.5 SW 31.4 WSW 0.0 755.0
10:10 26.6 47.1 1025.4 16.2 SSW 35.3 SW 0.0 763.2
10:15 26.8 46.4 1025.3 21.4 SW 31.8 SW 0.0 770.8
10:20 26.8 46.2 1025.3 19.0 SSW 29.7 SSW 0.0 777.1
10:25 27.1 45.9 1025.2 21.2 SW 30.4 SW 0.0 783.5
10:30 27.0 46.2 1025.2 17.9 SW 29.7 SW 0.0 786.8
10:35 27.6 44.9 1025.2 20.2 SW 32.8 SW 0.0 793.4
10:40 27.3 45.3 1025.3 15.5 SW 24.4 SW 0.0 798.7
10:45 27.5 45.0 1025.2 17.7 SW 27.2 SSW 0.0 803.0
10:50 27.8 44.9 1025.3 10.7 SW 22.2 SW 0.0 808.0
10:55 28.3 43.3 1025.3 10.7 SW 27.9 SW 0.0 813.0
11:00 28.6 43.1 1025.3 10.1 WSW 20.8 WSW 0.0 814.0
11:05 28.5 42.6 1025.3 6.4 SW 16.6 SW 0.0 817.0
11:10 29.2 41.7 1025.3 7.4 W 18.0 SSW 0.0 817.0
11:15 28.5 43.7 1025.2 8.2 NW 28.9 NW 0.0 819.0
11:20 27.7 46.2 1025.2 5.3 WNW 13.4 NNW 0.0 818.0
11:25 28.6 44.4 1025.2 6.8 ENE 19.1 E 0.0 821.0
11:30 28.6 44.3 1025.1 10.1 NNE 20.8 NNE 0.0 821.0
11:35 28.1 45.3 1025.1 9.7 NNE 22.2 ENE 0.0 821.0
11:40 28.2 45.3 1025.1 6.3 NE 16.2 E 0.0 823.0
11:45 29.1 43.4 1025.1 7.7 E 14.1 ENE 0.0 807.0
11:50 29.5 42.3 1025.0 6.7 SSE 19.1 SSE 0.0 822.0
11:55 29.2 42.5 1024.9 9.7 SE 20.1 SE 0.0 821.0
12:00 29.4 42.5 1024.9 5.0 S 16.6 S 0.0 822.0
12:05 29.8 41.9 1024.9 6.8 ESE 17.0 E 0.0 821.0
12:10 30.3 40.9 1024.8 5.6 SE 14.5 SE 0.0 817.0
12:15 30.7 39.9 1024.8 6.5 SE 19.1 ESE 0.0 814.0
12:20 30.7 40.0 1024.8 4.9 NE 9.9 ENE 0.0 809.0
12:25 30.1 40.9 1024.8 5.1 S 13.1 SSE 0.0 801.0
12:30 29.8 41.5 1024.8 3.8 SW 16.2 ESE 0.0 797.4
12:35 30.1 41.0 1024.8 6.4 ENE 19.4 E 0.0 766.5
12:40 30.2 40.7 1024.8 4.6 SSW 13.1 ENE 0.0 789.3
12:45 29.3 42.7 1024.8 5.6 SW 12.0 W 0.0 780.8
12:50 29.9 41.4 1024.8 5.8 ENE 14.8 E 0.0 776.4
12:55 30.0 41.1 1024.8 3.6 ESE 13.4 SE 0.0 774.2
13:00 29.9 41.3 1024.8 5.4 N 15.9 NE 0.0 769.0
13:05 29.5 42.3 1024.7 5.6 SSW 11.0 W 0.0 760.7
13:10 29.9 41.3 1024.8 3.2 NW 15.5 NW 0.0 751.1
13:15 29.3 42.6 1024.7 4.2 SW 11.7 S 0.0 742.4
13:20 29.6 42.1 1024.8 3.7 ENE 11.0 S 0.0 714.7
13:25 29.8 41.7 1024.8 2.2 ESE 13.4 SE 0.0 727.3
13:30 30.1 41.0 1024.7 4.4 SSE 12.4 S 0.0 720.0
13:35 29.8 42.0 1024.7 4.7 WSW 12.7 WSW 0.0 712.0
13:40 29.8 42.0 1024.6 5.8 W 18.0 NNE 0.0 704.7
13:45 29.4 42.7 1024.6 3.6 W 13.1 W 0.0 693.6
13:50 29.7 43.0 1024.6 5.8 SE 16.2 ESE 0.0 681.6
13:55 29.8 43.1 1024.6 5.4 SSE 13.4 S 0.0 673.5
14:00 29.9 42.6 1024.6 2.2 SSW 9.2 SSW 0.0 666.3
14:05 29.8 43.3 1024.5 3.6 E 9.9 E 0.0 647.6
14:10 30.6 41.2 1024.5 4.8 ENE 14.8 ENE 0.0 547.7
14:15 30.3 41.7 1024.4 5.7 NNE 21.5 NE 0.0 637.2
14:20 30.2 42.2 1024.3 8.0 NE 18.0 ENE 0.0 626.5
14:25 30.3 41.8 1024.3 7.5 NE 17.3 NNE 0.0 613.5
14:30 30.2 42.2 1024.3 9.1 ENE 22.6 ENE 0.0 602.0
14:35 30.3 42.0 1024.2 12.6 ENE 26.8 ENE 0.0 590.9
14:40 30.2 41.8 1024.2 10.4 ENE 17.3 NE 0.0 578.1
14:45 30.4 41.1 1024.2 9.1 E 15.9 E 0.0 565.9
14:50 30.7 41.1 1024.2 7.7 NNE 15.2 NE 0.0 554.8
14:55 30.3 42.1 1024.2 5.1 NE 11.7 N 0.0 541.4
15:00 30.6 41.2 1024.2 4.9 ENE 14.8 E 0.0 527.4
15:05 30.6 41.6 1024.1 7.4 NNE 16.6 NNE 0.0 512.8
15:10 30.4 41.4 1024.1 5.6 NE 12.7 NE 0.0 499.6
15:15 30.5 42.4 1024.1 8.9 ENE 18.7 E 0.0 484.6
15:20 30.5 43.1 1024.1 8.4 ENE 18.4 ENE 0.0 471.7
15:25 30.6 42.6 1024.1 6.4 NNE 14.8 NE 0.0 456.8
15:30 30.3 43.1 1024.1 6.6 NE 16.6 N 0.0 443.0
15:35 30.2 43.4 1024.1 8.1 NE 15.2 NE 0.0 428.9
15:40 29.8 44.3 1024.1 7.4 NE 13.4 NE 0.0 412.9
15:45 30.0 43.8 1024.1 5.9 ENE 12.0 NE 0.0 398.2
15:50 30.2 43.4 1024.1 7.4 ENE 17.3 ENE 0.0 383.2
15:55 30.3 43.1 1024.1 13.7 ENE 19.8 ENE 0.0 368.2
16:00 30.3 43.2 1024.1 12.4 E 19.4 ENE 0.0 351.9
16:05 30.1 43.6 1024.2 9.6 E 20.5 ENE 0.0 337.5
16:10 29.8 44.3 1024.2 9.5 ENE 21.5 ENE 0.0 323.2
16:15 29.7 44.5 1024.2 8.3 NE 18.0 NE 0.0 307.6
16:20 29.1 45.7 1024.2 14.4 ENE 23.7 ENE 0.0 291.8
16:25 29.0 45.8 1024.2 17.1 ENE 25.8 NE 0.0 276.4
16:30 28.9 46.2 1024.3 12.4 ENE 19.8 E 0.0 260.2
16:35 28.8 46.5 1024.4 10.1 E 17.7 E 0.0 244.4
16:40 28.9 46.4 1024.4 9.5 ENE 17.0 NE 0.0 229.7
16:45 28.6 47.2 1024.4 13.6 ENE 21.5 ENE 0.0 215.8
16:50 28.6 47.5 1024.4 11.6 ENE 20.5 E 0.0 198.8
16:55 28.5 48.1 1024.3 12.7 E 19.4 ESE 0.0 184.1
17:00 28.4 48.5 1024.4 11.5 ENE 19.8 ENE 0.0 170.3
17:05 28.2 49.3 1024.4 11.6 ENE 19.4 E 0.0 155.6
17:10 28.2 49.0 1024.4 11.7 ENE 17.7 ENE 0.0 142.8
17:15 28.0 49.6 1024.3 10.0 ENE 14.1 ENE 0.0 129.7
17:20 27.6 50.7 1024.3 9.1 ENE 13.8 ENE 0.0 115.4
17:25 27.6 51.1 1024.3 6.8 ENE 13.4 E 0.0 102.1
17:30 27.4 52.1 1024.3 8.9 ENE 12.7 ENE 0.0 89.1
17:35 26.9 54.1 1024.3 6.6 NE 13.1 ENE 0.0 77.9
17:40 26.4 55.9 1024.3 6.6 NE 11.7 NE 0.0 66.8
17:45 26.1 57.8 1024.4 4.4 ENE 10.6 ENE 0.0 55.3
17:50 25.9 58.4 1024.4 5.8 E 10.3 ESE 0.0 41.9
17:55 25.5 59.7 1024.4 4.3 NE 9.2 ENE 0.0 21.8
18:00 25.2 61.0 1024.4 3.5 NE 8.1 NE 0.0 17.2
18:05 24.9 61.8 1024.4 1.8 NE 6.4 ENE 0.0 13.4
18:10 24.7 62.3 1024.4 1.7 NNE 4.6 NNE 0.0 9.8
18:15 24.6 62.6 1024.4 0.0 NNE 0.0 NE 0.0 6.7
18:20 24.5 62.9 1024.5 0.0 NNE 0.0 NE 0.0 4.4
18:25 24.4 63.1 1024.5 1.5 NE 5.0 NNE 0.0 2.8
18:30 24.3 63.7 1024.5 4.2 NNE 7.4 NE 0.0 1.7
18:35 24.2 64.2 1024.4 4.6 NE 7.1 ENE 0.0 0.9
18:40 24.0 64.8 1024.5 4.4 ENE 7.8 NE 0.0 0.4
18:45 23.8 65.5 1024.5 4.0 ENE 7.1 NE 0.0 0.2
18:50 23.8 66.4 1024.6 1.0 NE 4.6 NE 0.0 0.1
18:55 23.7 66.8 1024.6 1.9 NNE 4.6 NNE 0.0 0.1
19:00 23.8 66.3 1024.6 4.3 NNE 5.3 NNE 0.0 0.1
19:05 23.8 66.3 1024.6 3.9 NNE 5.0 NNE 0.0 0.1
19:10 23.7 66.4 1024.6 1.3 NNE 5.0 NE 0.0 0.1
19:15 23.7 66.4 1024.7 0.0 NNE 0.0 N 0.0 0.2
19:20 23.6 66.8 1024.6 2.6 NE 5.7 NE 0.0 0.1
19:25 23.4 67.8 1024.6 4.6 NE 7.4 NNE 0.0 0.1
19:30 23.2 68.7 1024.6 4.2 NE 7.4 NE 0.0 0.1
19:35 23.1 69.0 1024.7 1.6 NE 6.7 NE 0.0 0.1
19:40 23.0 69.6 1024.8 0.0 NNE 0.0 ENE 0.0 0.1
Máxima 30.7 76.3 1025.5 21.4 SW 35.3 SW 0.0 823.0
Mínima 19.0 39.9 1024.1
Total 0.0